Weather History for Dryden, TX

Change the Weather History Date:

Tuesday, October 1, 2013

  Actual Average (KFST) Record (KFST)
Temperature  
Mean Temperature 78 °F -  
Max Temperature 93 °F 82 °F 98 °F (2005)
Min Temperature 63 °F 58 °F 53 °F (1996)
Cooling Degree Days 13    
Growing Degree Days 28 (Base 50)    
Moisture  
Dew Point 59 °F    
Average Humidity 58    
Maximum Humidity 87    
Minimum Humidity 25    
Precipitation  
Precipitation 0.00 in - - ()
Sea Level Pressure  
Sea Level Pressure 29.77 in    
Wind  
Wind Speed 7 mph (ENE)    
Max Wind Speed 14 mph    
Max Gust Speed 16 mph    
Averages and records for this station are not official NWS values.
T = Trace of Precipitation, MM = Missing Value Source: NWS Daily Summary

Daily Weather History Graph

Daily Weather History Graph

Search for Another Location

Airport:

Trip Planner

Search our weather history database for the weather conditions in past years. The results will help you decide how hot, cold, wet, or windy it might be!

Date:

Astronomy

Oct. 01, 2013 Rise Set
Actual Time 7:42 AM CDT 7:33 PM CDT
Civil Twilight 7:18 AM CDT 7:57 PM CDT
Nautical Twilight 6:50 AM CDT 8:25 PM CDT
Astronomical Twilight 6:22 AM CDT 8:53 PM CDT
Moon 4:31 AM CDT (10/1) 5:28 PM CDT (10/1)
Length of Visible Light 12h 39m
Length of Day
11h 51m
Waning Crescent, 12% of the Moon is Illuminated
Oct 1
Waning Crescent
Oct 4
New
Oct 11
First Quarter
Oct 18
Full
Oct 26
Last Quarter

Hourly Weather History & Observations

Time (CDT) Temp. Heat Index Dew Point Humidity Pressure Visibility Wind Dir Wind Speed Gust Speed Precip Events Conditions
12:53 AM 69.1 °F - 60.1 °F 73% 29.76 in - NE 6.9 mph - N/A   Unknown
1:53 AM 68.0 °F - 61.0 °F 78% 29.75 in - North 5.8 mph - N/A   Unknown
2:53 AM 66.9 °F - 61.0 °F 81% 29.75 in - North 4.6 mph - N/A   Unknown
3:53 AM 64.9 °F - 61.0 °F 87% 29.75 in - North 6.9 mph - N/A   Unknown
4:53 AM 64.9 °F - 60.1 °F 84% 29.75 in - North 6.9 mph - N/A   Unknown
5:53 AM 64.0 °F - 60.1 °F 87% 29.75 in - North 5.8 mph - N/A   Unknown
6:53 AM 63.0 °F - 59.0 °F 87% 29.78 in - Calm Calm - N/A   Unknown
7:53 AM 63.0 °F - 59.0 °F 87% 29.80 in - WNW 5.8 mph - N/A   Unknown
8:53 AM 68.0 °F - 62.1 °F 81% 29.82 in - Calm Calm - N/A   Unknown
9:53 AM 73.0 °F - 61.0 °F 66% 29.82 in - SW 3.5 mph - N/A   Unknown
10:53 AM 82.0 °F - 52.0 °F 35% 29.81 in - SW 9.2 mph - N/A   Unknown
11:53 AM 86.0 °F - 48.9 °F 28% 29.80 in - WSW 11.5 mph - N/A   Unknown
12:53 PM 88.0 °F - 52.0 °F 29% 29.79 in - SSW 9.2 mph - N/A   Unknown
1:53 PM 90.0 °F 87.7 °F 54.0 °F 29% 29.77 in - SSE 9.2 mph 16.1 mph N/A   Unknown
2:53 PM 91.9 °F 90.0 °F 55.0 °F 29% 29.73 in - SSE 8.1 mph 16.1 mph N/A   Unknown
3:53 PM 93.0 °F - 52.0 °F 25% 29.72 in - South 8.1 mph - N/A   Unknown
4:53 PM 93.0 °F 91.4 °F 55.9 °F 29% 29.70 in - SE 12.7 mph - N/A   Unknown
5:53 PM 91.0 °F 90.5 °F 60.1 °F 35% 29.71 in - East 13.8 mph - N/A   Unknown
6:53 PM 88.0 °F 87.9 °F 61.0 °F 40% 29.73 in - ESE 11.5 mph - N/A   Unknown
7:53 PM 82.9 °F 83.3 °F 61.0 °F 47% 29.75 in - ESE 6.9 mph - N/A   Unknown
8:53 PM 79.0 °F - 61.0 °F 54% 29.77 in - ENE 4.6 mph - N/A   Unknown
9:53 PM 77.0 °F - 64.0 °F 64% 29.78 in - NE 6.9 mph - N/A   Unknown
10:53 PM 73.9 °F - 64.0 °F 71% 29.78 in - ENE 6.9 mph - N/A   Unknown
11:53 PM 72.0 °F - 63.0 °F 73% 29.79 in - North 4.6 mph - N/A   Unknown